Location: Unspecified
(43.4680°N, 87.1740°E)
Time: 20:51:53
(UTC+00:00)

SL-24 R/B - RUBIN 2 - Pass Details

Date: 17 April 2021
Orbit: 580 x 1015 km, 64.6° (Epoch: 11 May)

Event Time Altitude Azimuth Distance (km) Brightness Sun altitude
Rises 14:32:13 0° 211° (SSW) 3,730 7.5 -16.6°
Reaches altitude 10° 14:34:49 10° 211° (SSW) 2,790 6.9 -16.9°
Maximum altitude 14:41:29 86° 124° (SE) 1,008 4.5 -17.9°
Drops below altitude 10° 14:47:55 10° 36° (NE) 2,690 6.8 -18.9°
Sets 14:50:24 0° 36° (NE) 3,589 7.5 -19.2°
